sampling_time,wmo_synop_id,msc_id,stn_nam,stn_elev,lat,long,stn_typ,date_tm,rpt_typ,result_time,crnt_buoy_lat,crnt_buoy_lat_qa_summary,crnt_buoy_long,crnt_buoy_long_qa_summary,avg_air_temp_pst10mts,avg_air_temp_pst10mts_qa_summary,avg_sea_sfc_temp_pst10mts,avg_sea_sfc_temp_pst10mts_qa_summary,avg_batry_volt_pst10mts,avg_batry_volt_pst10mts_qa_summary,avg_solr_panl_crnt_pst10mts,avg_solr_panl_crnt_pst10mts_qa_summary,avg_wtr_lvl_snsr_volt_pst10mts,avg_wtr_lvl_snsr_volt_pst10mts_qa_summary,avg_wave_hgt_pst20mts,avg_wave_hgt_pst20mts_qa_summary,pk_wave_hgt_pst20mts,pk_wave_hgt_pst20mts_qa_summary,sig_wave_pd_pst20mts,sig_wave_pd_pst20mts_qa_summary,sig_wave_hgt_pst20mts,sig_wave_hgt_pst20mts_qa_summary,avg_max_wave_hgt_pst20mts,avg_max_wave_hgt_pst20mts_qa_summary,avg_max_wave_pd_pst20mts,avg_max_wave_pd_pst20mts_qa_summary,avg_wave_pd_pst20mts,avg_wave_pd_pst20mts_qa_summary,pk_wave_pd_pst20mts,pk_wave_pd_pst20mts_qa_summary,avg_stn_pres_pst10mts,avg_stn_pres_pst10mts_qa_summary,avg_wnd_spd_pst10mts,avg_wnd_spd_pst10mts_qa_summary,avg_wnd_dir_pst10mts,avg_wnd_dir_pst10mts_qa_summary,max_avg_wnd_spd_pst10mts,max_avg_wnd_spd_pst10mts_qa_summary,wnd_snsr_vert_disp,wnd_snsr_vert_disp_qa_summary,pres_tend_char_pst3hrs,pres_tend_char_pst3hrs_data_flag,pres_tend_amt_pst3hrs,pres_tend_amt_pst3hrs_data_flag,avg_mslp_pst10mts,avg_mslp_pst10mts_data_flag,avg_stn_pres_pst10mts_1,avg_stn_pres_pst10mts_1_qa_summary,avg_stn_pres_pst10mts_2,avg_stn_pres_pst10mts_2_qa_summary,avg_wnd_spd_pst10mts_1,avg_wnd_spd_pst10mts_1_qa_summary,avg_wnd_spd_pst10mts_2,avg_wnd_spd_pst10mts_2_qa_summary,avg_wnd_dir_pst10mts_1,avg_wnd_dir_pst10mts_1_qa_summary,avg_wnd_dir_pst10mts_2,avg_wnd_dir_pst10mts_2_qa_summary,max_avg_wnd_spd_pst10mts_1,max_avg_wnd_spd_pst10mts_1_qa_summary,max_avg_wnd_spd_pst10mts_2,max_avg_wnd_spd_pst10mts_2_qa_summary
2022-03-10T00:00:00Z,44488,9302000,EAST CHEDABUCTO BAY,0,45.445,-60.9538,18,2022-03-10T00:00:00.000Z,108,2022-03-10T00:05:15.635Z,45.44507,100,-60.953669999999995,100,-0.2,100,1.1,100,12.7,100,0.0,100,2.8,100,0.4,100,0.9,100,4.0,100,0.6,100,0.8,100,4.8,100,3.3,100,11.1,100,1019.5,100,,-10,,-10,,-10,5,100,0,1,0.2,1,1019.5,1,1019.5,100,1019.5,100,,-10,,-10,,-10,,-10,,-10,,-10
2022-03-10T00:10:00Z,44488,9302000,EAST CHEDABUCTO BAY,0,45.445,-60.9538,18,2022-03-10T00:10:00.000Z,110,2022-03-10T00:15:12.487Z,,-1,,-1,1.0,100,2.1,100,12.7,100,0.0,100,2.8,100,,-1,,-1,,-1,,-1,,-1,,-1,,-1,,-1,1019.3,100,,-10,,-10,,-10,5,100,0,1,0.1,1,1019.3,1,1019.3,100,1019.3,100,,-10,,-10,,-10,,-10,,-10,,-10
2022-03-10T00:20:00Z,44488,9302000,EAST CHEDABUCTO BAY,0,45.445,-60.9538,18,2022-03-10T00:20:00.000Z,110,2022-03-10T00:27:14.664Z,45.4451,100,-60.953669999999995,100,0.0,100,1.1,100,12.7,100,0.0,100,2.8,100,,-1,,-1,,-1,,-1,,-1,,-1,,-1,,-1,1019.3,100,,-10,,-10,,-10,5,100,0,1,0.1,1,1019.3,1,1019.3,100,1019.3,100,,-10,,-10,,-10,,-10,,-10,,-10
2022-03-10T00:30:00Z,44488,9302000,EAST CHEDABUCTO BAY,0,45.445,-60.9538,18,2022-03-10T00:30:00.000Z,110,2022-03-10T00:35:15.969Z,45.44508,100,-60.95363,100,0.1,100,1.1,100,12.7,100,0.0,100,2.9,100,,-1,,-1,,-1,,-1,,-1,,-1,,-1,,-1,1019.3,100,,-10,,-10,,-10,5,100,0,1,0.0,1,1019.3,1,1019.3,100,1019.3,100,,-10,,-10,,-10,,-10,,-10,,-10
2022-03-10T00:40:00Z,44488,9302000,EAST CHEDABUCTO BAY,0,45.445,-60.9538,18,2022-03-10T00:40:00.000Z,110,2022-03-10T00:45:29.347Z,45.44507,100,-60.953669999999995,100,0.1,100,1.1,100,12.6,100,0.0,100,2.8,100,,-1,,-1,,-1,,-1,,-1,,-1,,-1,,-1,1019.3,100,,-10,,-10,,-10,5,100,0,1,0.0,1,1019.3,1,1019.3,100,1019.3,100,,-10,,-10,,-10,,-10,,-10,,-10
2022-03-10T00:50:00Z,44488,9302000,EAST CHEDABUCTO BAY,0,45.445,-60.9538,18,2022-03-10T00:50:00.000Z,110,2022-03-10T00:55:31.938Z,45.44507,100,-60.95365,100,0.1,100,1.1,100,12.6,100,0.0,100,2.8,100,,-1,,-1,,-1,,-1,,-1,,-1,,-1,,-1,1019.2,100,,-10,,-10,,-10,5,100,8,1,-0.1,1,1019.2,1,1019.2,100,1019.2,100,,-10,,-10,,-10,,-10,,-10,,-10
2022-03-10T01:00:00Z,44488,9302000,EAST CHEDABUCTO BAY,0,45.445,-60.9538,18,2022-03-10T01:00:00.000Z,108,2022-03-10T01:05:30.794Z,45.44507,100,-60.953669999999995,100,0.1,100,1.1,100,12.6,100,0.0,100,2.8,100,0.4,100,1.0,100,4.6,100,0.6,100,0.7,100,5.8,100,3.3,100,11.8,100,1019.1,100,,-10,,-10,,-10,5,100,8,1,-0.4,1,1019.1,1,1019.1,100,1019.1,100,,-10,,-10,,-10,,-10,,-10,,-10
2022-03-10T01:10:00Z,44488,9302000,EAST CHEDABUCTO BAY,0,45.445,-60.9538,18,2022-03-10T01:10:00.000Z,110,2022-03-10T01:18:35.800Z,45.44505,100,-60.95368000000001,100,0.1,100,1.1,100,12.7,100,0.0,100,2.8,100,,-1,,-1,,-1,,-1,,-1,,-1,,-1,,-1,1019.0,100,,-10,,-10,,-10,5,100,8,1,-0.6,1,1019.0,1,1019.0,100,1018.9,100,,-10,,-10,,-10,,-10,,-10,,-10
2022-03-10T01:20:00Z,44488,9302000,EAST CHEDABUCTO BAY,0,45.445,-60.9538,18,2022-03-10T01:20:00.000Z,110,2022-03-10T01:25:34.883Z,45.44505,100,-60.95368000000001,100,0.1,100,1.1,100,12.7,100,0.0,100,2.8,100,,-1,,-1,,-1,,-1,,-1,,-1,,-1,,-1,1018.8,100,,-10,,-10,,-10,5,100,8,1,-0.8,1,1018.8,1,1018.8,100,1018.8,100,,-10,,-10,,-10,,-10,,-10,,-10
2022-03-10T01:30:00Z,44488,9302000,EAST CHEDABUCTO BAY,0,45.445,-60.9538,18,2022-03-10T01:30:00.000Z,110,2022-03-10T01:35:43.942Z,45.44503,100,-60.95372,100,0.2,100,1.1,100,12.7,100,0.0,100,2.8,100,,-1,,-1,,-1,,-1,,-1,,-1,,-1,,-1,1018.8,100,,-10,,-10,,-10,5,100,8,1,-0.9,1,1018.8,1,1018.8,100,1018.8,100,,-10,,-10,,-10,,-10,,-10,,-10
2022-03-10T01:40:00Z,44488,9302000,EAST CHEDABUCTO BAY,0,45.445,-60.9538,18,2022-03-10T01:40:00.000Z,110,2022-03-10T01:45:38.061Z,45.44507,100,-60.9537,100,0.2,100,1.1,100,12.6,100,0.0,100,2.8,100,,-1,,-1,,-1,,-1,,-1,,-1,,-1,,-1,1018.6,100,,-10,,-10,,-10,5,100,8,1,-1.2,1,1018.6,1,1018.6,100,1018.6,100,,-10,,-10,,-10,,-10,,-10,,-10
2022-03-10T01:50:00Z,44488,9302000,EAST CHEDABUCTO BAY,0,45.445,-60.9538,18,2022-03-10T01:50:00.000Z,110,2022-03-10T01:55:51.554Z,45.44507,100,-60.95372,100,0.3,100,1.1,100,12.6,100,0.0,100,2.8,100,,-1,,-1,,-1,,-1,,-1,,-1,,-1,,-1,1018.3,100,,-10,,-10,,-10,5,100,8,1,-1.5,1,1018.3,1,1018.3,100,1018.3,100,,-10,,-10,,-10,,-10,,-10,,-10
2022-03-10T02:00:00Z,44488,9302000,EAST CHEDABUCTO BAY,0,45.445,-60.9538,18,2022-03-10T02:00:00.000Z,108,2022-03-10T02:05:56.709Z,45.445029999999996,100,-60.95373000000001,100,0.2,100,1.1,100,12.6,100,0.0,100,2.8,100,0.3,100,0.9,100,4.2,100,0.5,100,0.6,100,4.6,100,3.3,100,11.1,100,1017.9,100,,-10,,-10,,-10,5,100,8,1,-1.8,1,1017.9,1,1017.9,100,1017.9,100,,-10,,-10,,-10,,-10,,-10,,-10
2022-03-10T02:10:00Z,44488,9302000,EAST CHEDABUCTO BAY,0,45.445,-60.9538,18,2022-03-10T02:10:00.000Z,110,2022-03-10T02:18:54.218Z,45.44505,100,-60.95373000000001,100,0.2,100,1.1,100,12.6,100,0.0,100,2.8,100,,-1,,-1,,-1,,-1,,-1,,-1,,-1,,-1,1017.6,100,,-10,,-10,,-10,5,100,8,1,-2.2,1,1017.6,1,1017.6,100,1017.6,100,,-10,,-10,,-10,,-10,,-10,,-10
2022-03-10T02:20:00Z,44488,9302000,EAST CHEDABUCTO BAY,0,45.445,-60.9538,18,2022-03-10T02:20:00.000Z,110,2022-03-10T02:25:58.511Z,45.44502,100,-60.95373000000001,100,0.2,100,1.1,100,12.6,100,0.0,100,2.8,100,,-1,,-1,,-1,,-1,,-1,,-1,,-1,,-1,1017.3,100,,-10,,-10,,-10,5,100,8,1,-2.4,1,1017.3,1,1017.3,100,1017.2,100,,-10,,-10,,-10,,-10,,-10,,-10
2022-03-10T02:30:00Z,44488,9302000,EAST CHEDABUCTO BAY,0,45.445,-60.9538,18,2022-03-10T02:30:00.000Z,110,2022-03-10T02:35:59.575Z,45.44503,100,-60.95373000000001,100,0.2,100,1.1,100,12.6,100,0.0,100,2.8,100,,-1,,-1,,-1,,-1,,-1,,-1,,-1,,-1,1016.9,100,,-10,,-10,,-10,5,100,8,1,-2.6,1,1016.9,1,1016.9,100,1016.9,100,,-10,,-10,,-10,,-10,,-10,,-10
2022-03-10T02:40:00Z,44488,9302000,EAST CHEDABUCTO BAY,0,45.445,-60.9538,18,2022-03-10T02:40:00.000Z,110,2022-03-10T02:45:57.380Z,45.445029999999996,100,-60.95372,100,0.2,100,1.1,100,12.6,100,0.0,100,2.8,100,,-1,,-1,,-1,,-1,,-1,,-1,,-1,,-1,1016.9,100,,-10,,-10,,-10,5,100,8,1,-2.6,1,1016.9,1,1016.9,100,1016.9,100,,-10,,-10,,-10,,-10,,-10,,-10
2022-03-10T02:50:00Z,44488,9302000,EAST CHEDABUCTO BAY,0,45.445,-60.9538,18,2022-03-10T02:50:00.000Z,110,2022-03-10T02:56:15.764Z,45.44503,100,-60.95373000000001,100,0.3,100,1.1,100,12.6,100,0.0,100,2.8,100,,-1,,-1,,-1,,-1,,-1,,-1,,-1,,-1,1017.2,100,,-10,,-10,,-10,5,100,8,1,-2.3,1,1017.2,1,1017.2,100,1017.2,100,,-10,,-10,,-10,,-10,,-10,,-10
2022-03-10T03:00:00Z,44488,9302000,EAST CHEDABUCTO BAY,0,45.445,-60.9538,18,2022-03-10T03:00:00.000Z,108,2022-03-10T03:06:11.303Z,45.445029999999996,100,-60.95373000000001,100,0.3,100,1.1,100,12.6,100,0.0,100,2.8,100,0.3,100,0.9,100,5.5,100,0.5,100,0.6,100,7.2,100,3.8,100,10.5,100,1017.4,100,,-10,,-10,,-10,5,100,8,1,-2.0,1,1017.4,1,1017.4,100,1017.4,100,,-10,,-10,,-10,,-10,,-10,,-10
2022-03-10T03:10:00Z,44488,9302000,EAST CHEDABUCTO BAY,0,45.445,-60.9538,18,2022-03-10T03:10:00.000Z,110,2022-03-10T03:18:16.979Z,45.44505,100,-60.95373000000001,100,0.3,100,1.1,100,12.6,100,0.0,100,2.8,100,,-1,,-1,,-1,,-1,,-1,,-1,,-1,,-1,1017.6,100,,-10,,-10,,-10,5,100,6,1,-1.7,1,1017.6,1,1017.6,100,1017.6,100,,-10,,-10,,-10,,-10,,-10,,-10
2022-03-10T03:20:00Z,44488,9302000,EAST CHEDABUCTO BAY,0,45.445,-60.9538,18,2022-03-10T03:20:00.000Z,110,2022-03-10T03:26:12.976Z,45.445029999999996,100,-60.95373000000001,100,0.3,100,1.1,100,12.6,100,0.0,100,2.8,100,,-1,,-1,,-1,,-1,,-1,,-1,,-1,,-1,1017.2,100,,-10,,-10,,-10,5,100,6,1,-2.1,1,1017.2,1,1017.2,100,1017.2,100,,-10,,-10,,-10,,-10,,-10,,-10
2022-03-10T03:30:00Z,44488,9302000,EAST CHEDABUCTO BAY,0,45.445,-60.9538,18,2022-03-10T03:30:00.000Z,110,2022-03-10T03:35:16.752Z,45.44502,100,-60.95375,100,0.4,100,1.1,100,12.6,100,0.0,100,2.8,100,,-1,,-1,,-1,,-1,,-1,,-1,,-1,,-1,1017.3,100,,-10,,-10,,-10,5,100,5,1,-2.0,1,1017.3,1,1017.3,100,1017.3,100,,-10,,-10,,-10,,-10,,-10,,-10
2022-03-10T03:40:00Z,44488,9302000,EAST CHEDABUCTO BAY,0,45.445,-60.9538,18,2022-03-10T03:40:00.000Z,110,2022-03-10T03:45:15.188Z,45.445029999999996,100,-60.95375,100,0.4,100,1.1,100,12.6,100,0.0,100,2.8,100,,-1,,-1,,-1,,-1,,-1,,-1,,-1,,-1,1017.0,100,,-10,,-10,,-10,5,100,5,1,-2.3,1,1017.0,1,1017.0,100,1017.0,100,,-10,,-10,,-10,,-10,,-10,,-10
2022-03-10T03:50:00Z,44488,9302000,EAST CHEDABUCTO BAY,0,45.445,-60.9538,18,2022-03-10T03:50:00.000Z,110,2022-03-10T03:57:27.531Z,45.44503,100,-60.95375,100,0.4,100,1.1,100,12.6,100,0.0,100,2.8,100,,-1,,-1,,-1,,-1,,-1,,-1,,-1,,-1,1017.1,100,,-10,,-10,,-10,5,100,6,1,-2.1,1,1017.1,1,1017.1,100,1017.1,100,,-10,,-10,,-10,,-10,,-10,,-10
2022-03-10T04:00:00Z,44488,9302000,EAST CHEDABUCTO BAY,0,45.445,-60.9538,18,2022-03-10T04:00:00.000Z,108,2022-03-10T04:05:29.528Z,45.44502,100,-60.95373000000001,100,0.5,100,1.1,100,12.6,100,0.0,100,2.8,100,0.3,100,0.9,100,5.6,100,0.4,100,0.6,100,7.9,100,3.9,100,11.8,100,1017.6,100,,-10,,-10,,-10,5,100,5,1,-1.6,1,1017.6,1,1017.6,100,1017.6,100,,-10,,-10,,-10,,-10,,-10,,-10
2022-03-10T04:10:00Z,44488,9302000,EAST CHEDABUCTO BAY,0,45.445,-60.9538,18,2022-03-10T04:10:00.000Z,110,2022-03-10T04:18:30.479Z,45.44503,100,-60.95372,100,0.5,100,1.1,100,12.6,100,0.0,100,2.8,100,,-1,,-1,,-1,,-1,,-1,,-1,,-1,,-1,1017.5,100,,-10,,-10,,-10,5,100,6,1,-1.5,1,1017.5,1,1017.5,100,1017.5,100,,-10,,-10,,-10,,-10,,-10,,-10
2022-03-10T04:20:00Z,44488,9302000,EAST CHEDABUCTO BAY,0,45.445,-60.9538,18,2022-03-10T04:20:00.000Z,110,2022-03-10T04:31:32.868Z,45.44502,100,-60.95372,100,0.5,100,1.1,100,12.6,100,0.0,100,2.8,100,,-1,,-1,,-1,,-1,,-1,,-1,,-1,,-1,1017.3,100,,-10,,-10,,-10,5,100,5,1,-1.6,1,1017.3,1,1017.3,100,1017.3,100,,-10,,-10,,-10,,-10,,-10,,-10
2022-03-10T04:30:00Z,44488,9302000,EAST CHEDABUCTO BAY,0,45.445,-60.9538,18,2022-03-10T04:30:00.000Z,110,2022-03-10T04:35:34.284Z,45.44502,100,-60.95373000000001,100,0.5,100,1.1,100,12.6,100,0.0,100,2.8,100,,-1,,-1,,-1,,-1,,-1,,-1,,-1,,-1,1017.4,100,,-10,,-10,,-10,5,100,5,1,-1.4,1,1017.4,1,1017.4,100,1017.4,100,,-10,,-10,,-10,,-10,,-10,,-10
2022-03-10T04:40:00Z,44488,9302000,EAST CHEDABUCTO BAY,0,45.445,-60.9538,18,2022-03-10T04:40:00.000Z,110,2022-03-10T04:45:47.108Z,45.445029999999996,100,-60.95375,100,0.5,100,1.1,100,12.6,100,0.0,100,2.8,100,,-1,,-1,,-1,,-1,,-1,,-1,,-1,,-1,1017.5,100,,-10,,-10,,-10,5,100,5,1,-1.1,1,1017.5,1,1017.5,100,1017.5,100,,-10,,-10,,-10,,-10,,-10,,-10
2022-03-10T04:50:00Z,44488,9302000,EAST CHEDABUCTO BAY,0,45.445,-60.9538,18,2022-03-10T04:50:00.000Z,110,2022-03-10T04:55:49.639Z,45.44502,100,-60.95375,100,0.5,100,1.1,100,12.6,100,0.0,100,2.8,100,,-1,,-1,,-1,,-1,,-1,,-1,,-1,,-1,1017.2,100,,-10,,-10,,-10,5,100,5,1,-1.1,1,1017.2,1,1017.2,100,1017.2,100,,-10,,-10,,-10,,-10,,-10,,-10
2022-03-10T05:00:00Z,44488,9302000,EAST CHEDABUCTO BAY,0,45.445,-60.9538,18,2022-03-10T05:00:00.000Z,108,2022-03-10T05:05:48.603Z,45.44502,100,-60.95373000000001,100,0.5,100,1.1,100,12.6,100,0.0,100,2.8,100,0.3,100,0.9,100,5.9,100,0.4,100,0.6,100,7.7,100,3.7,100,10.0,100,1016.8,100,,-10,,-10,,-10,5,100,8,1,-1.1,1,1016.8,1,1016.8,100,1016.8,100,,-10,,-10,,-10,,-10,,-10,,-10
2022-03-10T05:10:00Z,44488,9302000,EAST CHEDABUCTO BAY,0,45.445,-60.9538,18,2022-03-10T05:10:00.000Z,110,2022-03-10T05:18:55.717Z,45.44505,100,-60.95378,100,0.4,100,1.1,100,12.6,100,0.0,100,2.8,100,,-1,,-1,,-1,,-1,,-1,,-1,,-1,,-1,1016.6,100,,-10,,-10,,-10,5,100,8,1,-1.0,1,1016.6,1,1016.6,100,1016.6,100,,-10,,-10,,-10,,-10,,-10,,-10
2022-03-10T05:20:00Z,44488,9302000,EAST CHEDABUCTO BAY,0,45.445,-60.9538,18,2022-03-10T05:20:00.000Z,110,2022-03-10T05:25:58.905Z,45.44502,100,-60.95375,100,0.5,100,1.1,100,12.6,100,0.0,100,2.8,100,,-1,,-1,,-1,,-1,,-1,,-1,,-1,,-1,1016.5,100,,-10,,-10,,-10,5,100,8,1,-0.7,1,1016.5,1,1016.5,100,1016.5,100,,-10,,-10,,-10,,-10,,-10,,-10
2022-03-10T05:30:00Z,44488,9302000,EAST CHEDABUCTO BAY,0,45.445,-60.9538,18,2022-03-10T05:30:00.000Z,110,2022-03-10T05:36:01.525Z,45.445,100,-60.95373000000001,100,0.5,100,1.1,100,12.6,100,0.0,100,2.8,100,,-1,,-1,,-1,,-1,,-1,,-1,,-1,,-1,1016.4,100,,-10,,-10,,-10,5,100,8,1,-0.6,1,1016.4,1,1016.4,100,1016.4,100,,-10,,-10,,-10,,-10,,-10,,-10
2022-03-10T05:40:00Z,44488,9302000,EAST CHEDABUCTO BAY,0,45.445,-60.9538,18,2022-03-10T05:40:00.000Z,110,2022-03-10T05:45:59.273Z,45.445029999999996,100,-60.95377,100,0.4,100,1.1,100,12.5,100,0.0,100,2.8,100,,-1,,-1,,-1,,-1,,-1,,-1,,-1,,-1,1016.0,100,,-10,,-10,,-10,5,100,8,1,-0.9,1,1016.0,1,1016.0,100,1016.0,100,,-10,,-10,,-10,,-10,,-10,,-10
2022-03-10T05:50:00Z,44488,9302000,EAST CHEDABUCTO BAY,0,45.445,-60.9538,18,2022-03-10T05:50:00.000Z,110,2022-03-10T05:56:08.031Z,45.44502,100,-60.95377,100,0.4,100,1.1,100,12.5,100,0.0,100,2.8,100,,-1,,-1,,-1,,-1,,-1,,-1,,-1,,-1,1016.0,100,,-10,,-10,,-10,5,100,8,1,-1.3,1,1016.0,1,1016.0,100,1016.0,100,,-10,,-10,,-10,,-10,,-10,,-10
2022-03-10T06:00:00Z,44488,9302000,EAST CHEDABUCTO BAY,0,45.445,-60.9538,18,2022-03-10T06:00:00.000Z,108,2022-03-10T06:05:15.501Z,45.44502,100,-60.95375,100,0.5,100,1.1,100,12.6,100,0.0,100,2.8,100,0.3,100,0.7,100,6.9,100,0.4,100,0.6,100,8.7,100,4.3,100,10.0,100,1015.9,100,,-10,,-10,,-10,5,100,8,1,-1.5,1,1015.9,1,1015.9,100,1015.9,100,,-10,,-10,,-10,,-10,,-10,,-10
2022-03-10T06:10:00Z,44488,9302000,EAST CHEDABUCTO BAY,0,45.445,-60.9538,18,2022-03-10T06:10:00.000Z,110,2022-03-10T06:18:09.806Z,45.44502,100,-60.95375,100,0.4,100,1.1,100,12.6,100,0.0,100,2.8,100,,-1,,-1,,-1,,-1,,-1,,-1,,-1,,-1,1015.9,100,,-10,,-10,,-10,5,100,8,1,-1.7,1,1015.9,1,1015.9,100,1015.9,100,,-10,,-10,,-10,,-10,,-10,,-10
2022-03-10T06:20:00Z,44488,9302000,EAST CHEDABUCTO BAY,0,45.445,-60.9538,18,2022-03-10T06:20:00.000Z,110,2022-03-10T06:27:12.318Z,45.44502,100,-60.95373000000001,100,-0.1,100,1.1,100,12.6,100,0.0,100,2.8,100,,-1,,-1,,-1,,-1,,-1,,-1,,-1,,-1,1015.6,100,,-10,,-10,,-10,5,100,8,1,-1.6,1,1015.6,1,1015.6,100,1015.6,100,,-10,,-10,,-10,,-10,,-10,,-10
2022-03-10T06:30:00Z,44488,9302000,EAST CHEDABUCTO BAY,0,45.445,-60.9538,18,2022-03-10T06:30:00.000Z,110,2022-03-10T06:35:13.355Z,45.44502,100,-60.95373000000001,100,-0.5,100,1.1,100,12.6,100,0.0,100,2.8,100,,-1,,-1,,-1,,-1,,-1,,-1,,-1,,-1,1015.5,100,,-10,,-10,,-10,5,100,8,1,-1.8,1,1015.5,1,1015.5,100,1015.5,100,,-10,,-10,,-10,,-10,,-10,,-10
2022-03-10T06:40:00Z,44488,9302000,EAST CHEDABUCTO BAY,0,45.445,-60.9538,18,2022-03-10T06:40:00.000Z,110,2022-03-10T06:47:18.870Z,45.445029999999996,100,-60.95372,100,-0.6,100,1.0,100,12.5,100,0.0,100,2.8,100,,-1,,-1,,-1,,-1,,-1,,-1,,-1,,-1,1015.4,100,,-10,,-10,,-10,5,100,8,1,-1.7,1,1015.4,1,1015.4,100,1015.4,100,,-10,,-10,,-10,,-10,,-10,,-10
2022-03-10T06:50:00Z,44488,9302000,EAST CHEDABUCTO BAY,0,45.445,-60.9538,18,2022-03-10T06:50:00.000Z,110,2022-03-10T06:55:19.427Z,45.44503,100,-60.95372,100,-0.6,100,1.0,100,12.5,100,0.0,100,2.8,100,,-1,,-1,,-1,,-1,,-1,,-1,,-1,,-1,1015.3,100,,-10,,-10,,-10,5,100,8,1,-1.8,1,1015.3,1,1015.3,100,1015.3,100,,-10,,-10,,-10,,-10,,-10,,-10
2022-03-10T07:00:00Z,44488,9302000,EAST CHEDABUCTO BAY,0,45.445,-60.9538,18,2022-03-10T07:00:00.000Z,108,2022-03-10T07:05:21.188Z,45.445029999999996,100,-60.95372,100,-0.6,100,1.0,100,12.5,100,0.0,100,2.8,100,0.2,100,0.7,100,6.8,100,0.4,100,0.5,100,8.0,100,4.4,100,10.5,100,1015.2,100,,-10,,-10,,-10,5,100,7,1,-2.4,1,1015.2,1,1015.2,100,1015.2,100,,-10,,-10,,-10,,-10,,-10,,-10
2022-03-10T07:10:00Z,44488,9302000,EAST CHEDABUCTO BAY,0,45.445,-60.9538,18,2022-03-10T07:10:00.000Z,110,2022-03-10T07:18:36.005Z,45.44503,100,-60.95372,100,-0.7,100,1.0,100,12.5,100,0.0,100,2.8,100,,-1,,-1,,-1,,-1,,-1,,-1,,-1,,-1,1015.0,100,,-10,,-10,,-10,5,100,6,1,-2.5,1,1015.0,1,1015.0,100,1015.0,100,,-10,,-10,,-10,,-10,,-10,,-10
2022-03-10T07:20:00Z,44488,9302000,EAST CHEDABUCTO BAY,0,45.445,-60.9538,18,2022-03-10T07:20:00.000Z,110,2022-03-10T07:25:35.051Z,45.445029999999996,100,-60.95372,100,-0.7,100,1.0,100,12.5,100,0.0,100,2.8,100,,-1,,-1,,-1,,-1,,-1,,-1,,-1,,-1,1014.9,100,,-10,,-10,,-10,5,100,6,1,-2.4,1,1014.9,1,1014.9,100,1014.9,100,,-10,,-10,,-10,,-10,,-10,,-10
2022-03-10T07:30:00Z,44488,9302000,EAST CHEDABUCTO BAY,0,45.445,-60.9538,18,2022-03-10T07:30:00.000Z,110,2022-03-10T07:35:32.659Z,45.44503,100,-60.95373000000001,100,-0.8,100,1.0,100,12.5,100,0.0,100,2.8,100,,-1,,-1,,-1,,-1,,-1,,-1,,-1,,-1,1014.8,100,,-10,,-10,,-10,5,100,6,1,-2.6,1,1014.8,1,1014.8,100,1014.8,100,,-10,,-10,,-10,,-10,,-10,,-10
2022-03-10T07:40:00Z,44488,9302000,EAST CHEDABUCTO BAY,0,45.445,-60.9538,18,2022-03-10T07:40:00.000Z,110,2022-03-10T07:45:35.844Z,45.445029999999996,100,-60.95373000000001,100,-0.8,100,1.0,100,12.5,100,0.0,100,2.8,100,,-1,,-1,,-1,,-1,,-1,,-1,,-1,,-1,1014.9,100,,-10,,-10,,-10,5,100,6,1,-2.6,1,1014.9,1,1014.9,100,1014.9,100,,-10,,-10,,-10,,-10,,-10,,-10
2022-03-10T07:50:00Z,44488,9302000,EAST CHEDABUCTO BAY,0,45.445,-60.9538,18,2022-03-10T07:50:00.000Z,110,2022-03-10T07:55:41.708Z,45.44502,100,-60.95373000000001,100,-0.8,100,1.0,100,12.5,100,0.0,100,2.8,100,,-1,,-1,,-1,,-1,,-1,,-1,,-1,,-1,1014.8,100,,-10,,-10,,-10,5,100,6,1,-2.4,1,1014.8,1,1014.8,100,1014.8,100,,-10,,-10,,-10,,-10,,-10,,-10
2022-03-10T08:00:00Z,44488,9302000,EAST CHEDABUCTO BAY,0,45.445,-60.9538,18,2022-03-10T08:00:00.000Z,108,2022-03-10T08:05:44.025Z,45.44502,100,-60.95373000000001,100,-0.8,100,1.0,100,12.5,100,0.0,100,2.8,100,0.3,100,0.8,100,6.1,100,0.5,100,0.6,100,7.3,100,4.0,100,9.5,100,1014.9,100,,-10,,-10,,-10,5,100,6,1,-1.9,1,1014.9,1,1014.9,100,1014.9,100,,-10,,-10,,-10,,-10,,-10,,-10
2022-03-10T08:10:00Z,44488,9302000,EAST CHEDABUCTO BAY,0,45.445,-60.9538,18,2022-03-10T08:10:00.000Z,110,2022-03-10T08:18:42.951Z,45.445,100,-60.9537,100,-0.7,100,1.0,100,12.5,100,0.0,100,2.8,100,,-1,,-1,,-1,,-1,,-1,,-1,,-1,,-1,1015.0,100,,-10,,-10,,-10,5,100,6,1,-1.7,1,1015.0,1,1015.0,100,1015.0,100,,-10,,-10,,-10,,-10,,-10,,-10
2022-03-10T08:20:00Z,44488,9302000,EAST CHEDABUCTO BAY,0,45.445,-60.9538,18,2022-03-10T08:20:00.000Z,110,2022-03-10T08:25:43.036Z,45.44502,100,-60.95372,100,-0.8,100,1.0,100,12.5,100,0.0,100,2.8,100,,-1,,-1,,-1,,-1,,-1,,-1,,-1,,-1,1015.1,100,,-10,,-10,,-10,5,100,5,1,-1.4,1,1015.1,1,1015.1,100,1015.1,100,,-10,,-10,,-10,,-10,,-10,,-10
2022-03-10T08:30:00Z,44488,9302000,EAST CHEDABUCTO BAY,0,45.445,-60.9538,18,2022-03-10T08:30:00.000Z,110,2022-03-10T08:35:56.427Z,45.44503,100,-60.95372,100,-0.7,100,1.0,100,12.5,100,0.0,100,2.8,100,,-1,,-1,,-1,,-1,,-1,,-1,,-1,,-1,1015.1,100,,-10,,-10,,-10,5,100,5,1,-1.2,1,1015.1,1,1015.1,100,1015.1,100,,-10,,-10,,-10,,-10,,-10,,-10
2022-03-10T08:40:00Z,44488,9302000,EAST CHEDABUCTO BAY,0,45.445,-60.9538,18,2022-03-10T08:40:00.000Z,110,2022-03-10T08:45:57.796Z,45.44502,100,-60.95373000000001,100,-0.7,100,1.0,100,12.5,100,0.0,100,2.8,100,,-1,,-1,,-1,,-1,,-1,,-1,,-1,,-1,1015.1,100,,-10,,-10,,-10,5,100,5,1,-0.9,1,1015.1,1,1015.1,100,1015.1,100,,-10,,-10,,-10,,-10,,-10,,-10
2022-03-10T08:50:00Z,44488,9302000,EAST CHEDABUCTO BAY,0,45.445,-60.9538,18,2022-03-10T08:50:00.000Z,110,2022-03-10T08:56:02.025Z,45.44503,100,-60.95372,100,-0.6,100,1.0,100,12.5,100,0.0,100,2.8,100,,-1,,-1,,-1,,-1,,-1,,-1,,-1,,-1,1015.1,100,,-10,,-10,,-10,5,100,5,1,-0.9,1,1015.1,1,1015.1,100,1015.1,100,,-10,,-10,,-10,,-10,,-10,,-10
2022-03-10T09:00:00Z,44488,9302000,EAST CHEDABUCTO BAY,0,45.445,-60.9538,18,2022-03-10T09:00:00.000Z,108,2022-03-10T09:06:01.109Z,45.44495,100,-60.953669999999995,100,-0.6,100,1.0,100,12.5,100,0.0,100,2.8,100,0.3,100,0.8,100,7.1,100,0.4,100,0.6,100,8.4,100,4.7,100,10.0,100,1015.1,100,,-10,,-10,,-10,5,100,5,1,-0.8,1,1015.1,1,1015.1,100,1015.1,100,,-10,,-10,,-10,,-10,,-10,,-10
2022-03-10T09:10:00Z,44488,9302000,EAST CHEDABUCTO BAY,0,45.445,-60.9538,18,2022-03-10T09:10:00.000Z,110,2022-03-10T09:19:04.125Z,45.44502,100,-60.95375,100,-0.7,100,1.0,100,12.5,100,0.0,100,2.8,100,,-1,,-1,,-1,,-1,,-1,,-1,,-1,,-1,1015.1,100,,-10,,-10,,-10,5,100,5,1,-0.8,1,1015.1,1,1015.1,100,1015.1,100,,-10,,-10,,-10,,-10,,-10,,-10
2022-03-10T09:20:00Z,44488,9302000,EAST CHEDABUCTO BAY,0,45.445,-60.9538,18,2022-03-10T09:20:00.000Z,110,2022-03-10T09:26:03.024Z,45.44498,100,-60.95373000000001,100,-0.7,100,1.0,100,12.5,100,0.0,100,2.8,100,,-1,,-1,,-1,,-1,,-1,,-1,,-1,,-1,1015.2,100,,-10,,-10,,-10,5,100,5,1,-0.4,1,1015.2,1,1015.2,100,1015.2,100,,-10,,-10,,-10,,-10,,-10,,-10
2022-03-10T09:30:00Z,44488,9302000,EAST CHEDABUCTO BAY,0,45.445,-60.9538,18,2022-03-10T09:30:00.000Z,110,2022-03-10T09:36:02.198Z,45.44502,100,-60.95372,100,-0.7,100,1.0,100,12.5,100,0.0,100,2.8,100,,-1,,-1,,-1,,-1,,-1,,-1,,-1,,-1,1015.2,100,,-10,,-10,,-10,5,100,5,1,-0.3,1,1015.2,1,1015.2,100,1015.2,100,,-10,,-10,,-10,,-10,,-10,,-10
2022-03-10T09:40:00Z,44488,9302000,EAST CHEDABUCTO BAY,0,45.445,-60.9538,18,2022-03-10T09:40:00.000Z,110,2022-03-10T09:46:02.645Z,45.44502,100,-60.95372,100,-0.7,100,1.0,100,12.4,100,0.0,100,2.8,100,,-1,,-1,,-1,,-1,,-1,,-1,,-1,,-1,1015.2,100,,-10,,-10,,-10,5,100,5,1,-0.2,1,1015.2,1,1015.2,100,1015.2,100,,-10,,-10,,-10,,-10,,-10,,-10
2022-03-10T09:50:00Z,44488,9302000,EAST CHEDABUCTO BAY,0,45.445,-60.9538,18,2022-03-10T09:50:00.000Z,110,2022-03-10T09:56:05.833Z,45.44502,100,-60.95375,100,-0.7,100,1.0,100,12.4,100,0.0,100,2.8,100,,-1,,-1,,-1,,-1,,-1,,-1,,-1,,-1,1015.3,100,,-10,,-10,,-10,5,100,5,1,0.0,1,1015.3,1,1015.3,100,1015.3,100,,-10,,-10,,-10,,-10,,-10,,-10
2022-03-10T10:00:00Z,44488,9302000,EAST CHEDABUCTO BAY,0,45.445,-60.9538,18,2022-03-10T10:00:00.000Z,108,2022-03-10T10:06:15.352Z,45.44502,100,-60.95375,100,-0.6,100,1.0,100,12.5,100,0.0,100,2.8,100,0.3,100,0.6,100,7.0,100,0.4,100,0.5,100,8.1,100,4.6,100,10.5,100,1015.2,100,,-10,,-10,,-10,5,100,5,1,0.0,1,1015.2,1,1015.2,100,1015.2,100,,-10,,-10,,-10,,-10,,-10,,-10
2022-03-10T10:10:00Z,44488,9302000,EAST CHEDABUCTO BAY,0,45.445,-60.9538,18,2022-03-10T10:10:00.000Z,110,2022-03-10T10:18:16.985Z,45.44503,100,-60.95375,100,-0.6,100,1.0,100,12.5,100,0.0,100,2.8,100,,-1,,-1,,-1,,-1,,-1,,-1,,-1,,-1,1015.3,100,,-10,,-10,,-10,5,100,3,1,0.3,1,1015.3,1,1015.3,100,1015.3,100,,-10,,-10,,-10,,-10,,-10,,-10
2022-03-10T10:20:00Z,44488,9302000,EAST CHEDABUCTO BAY,0,45.445,-60.9538,18,2022-03-10T10:20:00.000Z,110,2022-03-10T10:25:18.445Z,45.44502,100,-60.95375,100,-0.5,100,1.0,100,12.5,100,0.0,100,2.8,100,,-1,,-1,,-1,,-1,,-1,,-1,,-1,,-1,1015.3,100,,-10,,-10,,-10,5,100,2,1,0.4,1,1015.3,1,1015.3,100,1015.3,100,,-10,,-10,,-10,,-10,,-10,,-10
2022-03-10T10:30:00Z,44488,9302000,EAST CHEDABUCTO BAY,0,45.445,-60.9538,18,2022-03-10T10:30:00.000Z,110,2022-03-10T10:37:23.195Z,45.44502,100,-60.95375,100,-0.5,100,1.0,100,12.5,100,0.0,100,2.8,100,,-1,,-1,,-1,,-1,,-1,,-1,,-1,,-1,1015.3,100,,-10,,-10,,-10,5,100,1,1,0.5,1,1015.3,1,1015.3,100,1015.3,100,,-10,,-10,,-10,,-10,,-10,,-10